Weather History for Port Angeles, WA

Change the Weather History Date:

Saturday, January 4, 2014

  Actual Average Record
Temperature  
Mean Temperature 35 °F -  
Max Temperature 42 °F 44 °F 56 °F (1984)
Min Temperature 28 °F 33 °F 14 °F (1959)
Degree Days  
Heating Degree Days 30    
Moisture  
Dew Point 30 °F    
Average Humidity 85    
Maximum Humidity 96    
Minimum Humidity 73    
Precipitation  
Precipitation 0.00 in - - ()
Sea Level Pressure  
Sea Level Pressure 30.46 in    
Wind  
Wind Speed 4 mph (ESE)    
Max Wind Speed 9 mph    
Max Gust Speed -    
Visibility 10 miles    
Events      
Averages and records for this station are not official NWS values.
T = Trace of Precipitation, MM = Missing Value Source: NWS Daily Summary

Daily Weather History Graph

Daily Weather History Graph

Search for Another Location

Airport:

Trip Planner

Search our weather history database for the weather conditions in past years. The results will help you decide how hot, cold, wet, or windy it might be!

Date:

Astronomy

Jan. 04, 2014 Rise Set
Actual Time 8:04 AM PST 4:34 PM PST
Civil Twilight 7:27 AM PST 5:10 PM PST
Nautical Twilight 6:48 AM PST 5:49 PM PST
Astronomical Twilight 6:10 AM PST 6:27 PM PST
Moon 9:53 AM PST (1/4) 9:22 PM PST (1/4)
Length of Visible Light 9h 42m
Length of Day
8h 30m
Waxing Crescent, 16% of the Moon is Illuminated
Jan 4
Waxing Crescent
Jan 7
First Quarter
Jan 15
Full
Jan 23
Last Quarter
Jan 30
New

Hourly Weather History & Observations

Time (PST) Temp. Windchill Dew Point Humidity Pressure Visibility Wind Dir Wind Speed Gust Speed Precip Events Conditions
12:53 AM 30.9 °F - 28.0 °F 89% 30.39 in 10.0 mi North - - N/A   Clear
1:53 AM 32.0 °F - 27.0 °F 82% 30.41 in 10.0 mi North - - N/A   Clear
2:53 AM 32.0 °F - 27.0 °F 82% 30.43 in 10.0 mi North - - N/A   Clear
3:53 AM 28.0 °F - 26.1 °F 92% 30.44 in 10.0 mi North - - N/A   Clear
4:53 AM 28.0 °F - 26.1 °F 92% 30.45 in 10.0 mi North - - N/A   Clear
5:53 AM 28.0 °F - 25.0 °F 88% 30.45 in 10.0 mi North - - N/A   Clear
6:53 AM 28.9 °F - 27.0 °F 92% 30.44 in 10.0 mi North - - N/A   Clear
7:53 AM 28.9 °F - 27.0 °F 92% 30.45 in 10.0 mi North - - N/A   Clear
8:53 AM 30.0 °F - 28.0 °F 92% 30.46 in 10.0 mi North - - N/A   Clear
9:53 AM 35.1 °F - 30.0 °F 82% 30.47 in 10.0 mi Calm Calm - N/A   Clear
10:53 AM 41.0 °F 35.8 °F 34.0 °F 76% 30.48 in 10.0 mi East 8.1 mph - N/A   Clear
11:53 AM 42.1 °F 36.6 °F 34.0 °F 73% 30.48 in 10.0 mi East 9.2 mph - N/A   Clear
12:44 PM 42.1 °F 38.4 °F 34.0 °F 73% 30.46 in 10.0 mi East 5.8 mph - N/A   Mostly Cloudy
12:53 PM 41.0 °F 36.4 °F 35.1 °F 79% 30.47 in 10.0 mi East 6.9 mph - N/A   Mostly Cloudy
1:53 PM 41.0 °F 36.4 °F 34.0 °F 76% 30.45 in 10.0 mi East 6.9 mph - N/A   Overcast
2:53 PM 41.0 °F 37.1 °F 33.1 °F 73% 30.46 in 10.0 mi East 5.8 mph - N/A   Overcast
3:53 PM 39.9 °F 35.1 °F 33.1 °F 77% 30.45 in 10.0 mi East 6.9 mph - N/A   Overcast
4:53 PM 37.9 °F 33.5 °F 32.0 °F 79% 30.45 in 10.0 mi East 5.8 mph - N/A   Overcast
5:53 PM 37.0 °F 32.4 °F 32.0 °F 82% 30.45 in 10.0 mi SSE 5.8 mph - N/A   Overcast
6:53 PM 37.0 °F - 32.0 °F 82% 30.47 in 10.0 mi Calm Calm - N/A   Overcast
7:53 PM 35.1 °F 32.2 °F 30.9 °F 85% 30.48 in 10.0 mi SE 3.5 mph - N/A   Scattered Clouds
8:53 PM 30.0 °F 26.5 °F 28.0 °F 92% 30.47 in 10.0 mi South 3.5 mph - N/A   Clear
9:53 PM 28.9 °F - 27.0 °F 92% 30.48 in 10.0 mi Calm Calm - N/A   Clear
10:31 PM 28.9 °F - 27.0 °F 92% 30.47 in 10.0 mi Calm Calm - N/A   Mostly Cloudy
10:53 PM 28.9 °F - 27.0 °F 92% 30.48 in 10.0 mi Calm Calm - N/A   Overcast
11:20 PM 28.0 °F - 27.0 °F 96% 30.47 in 10.0 mi Calm Calm - N/A   Partly Cloudy
11:41 PM 30.0 °F 26.5 °F 28.0 °F 92% 30.47 in 10.0 mi SE 3.5 mph - N/A   Mostly Cloudy
11:53 PM 32.0 °F 25.6 °F 28.9 °F 88% 30.49 in 10.0 mi SE 6.9 mph - N/A   Overcast